SCP
0 0 0 0 0 0 0 0 0 0 0 0 0 0 0 1 0 0 0 0 0 0 0 0 0 0 0 0 0 0 0 0 0 0 0 0 0 0 0 0 0 0 0
0 0 0 0 0 0 0 0 0 0 0 0 0 0 0 1 1 0 0 0 0 0 0 0 0 0 0 0 0 0 0 0 0 0 0 0 0 0 0 0 0 0 0
0 0 0 0 0 0 0 0 0 0 0 0 0 0 0 1 1 0 0 0 0 0 0 0 0 0 0 0 0 0 0 0 0 0 0 0 0 0 0 0 0 0 0
0 0 0 0 0 0 0 0 0 0 0 0 0 0 0 0 1 1 0 0 0 0 0 0 0 0 0 0 0 0 0 0 0 0 0 0 0 0 0 0 0 0 0
0 0 0 0 0 0 0 0 0 0 0 0 0 0 0 0 1 1 0 0 0 0 0 0 0 0 0 0 0 0 0 0 0 0 0 0 0 0 0 0 0 0 0
0 0 0 0 0 0 0 0 0 0 0 0 0 0 0 0 0 0 0 0 0 0 0 0 0 0 0 0 0 0 0 0 0 0 0 0 0 0 0 0 0 0 0
0 0 0 0 0 0 0 0 0 0 0 0 0 0 0 0 0 0 0 0 0 0 0 0 0 0 0 0 0 0 0 0 0 0 0 0 0 0 0 0 0 0 0
0 0 0 0 0 0 0 0 0 0 0 0 0 0 0 0 0 0 0 0 0 0 0 0 0 0 0 0 0 0 0 0 0 0 0 0 0 0 0 0 0 0 0
0 0 0 0 0 0 0 0 0 0 0 0 0 0 0 0 0 0 0 0 0 0 0 0 0 0 0 0 0 0 0 0 0 0 0 0 0 0 0 0 0 0 0
0 0 0 0 0 0 0 0 0 0 0 0 0 0 0 0 0 0 0 0 0 0 0 0 0 0 0 0 0 0 0 0 0 0 0 0 0 0 0 0 0 0 0
0 0 0 0 0 0 0 0 0 0 0 0 0 0 0 0 0 0 0 0 0 0 0 0 0 0 0 0 0 0 0 0 0 0 0 0 0 0 0 0 0 0 0
0 0 0 0 0 0 0 0 0 0 0 0 0 0 0 0 0 0 0 0 0 0 0 0 0 0 0 0 0 0 0 0 0 0 0 0 0 0 0 0 0 0 0
0 0 0 0 0 0 0 0 0 0 0 0 0 0 0 0 0 0 0 0 0 0 0 0 0 0 0 0 0 0 0 0 0 0 0 0 0 0 0 0 0 0 0
0 0 0 0 0 0 0 0 0 0 0 0 0 0 0 0 0 0 0 0 0 0 0 0 0 0 0 0 0 0 0 0 0 0 0 0 0 0 0 0 0 0 0
0 0 0 0 0 0 0 0 0 0 0 0 0 0 0 0 0 0 0 0 0 0 0 0 0 0 0 0 0 0 0 0 0 0 0 0 0 0 0 0 0 0 0
0 0 0 0 0 0 0 0 0 0 0 0 0 0 0 0 0 0 0 0 0 0 0 0 0 0 0 0 0 0 0 0 0 0 0 0 0 0 0 0 0 0 0
0 0 0 0 0 0 0 0 0 0 0 0 0 0 0 0 0 0 0 0 0 0 0 0 0 0 0 0 0 0 0 0 0 0 0 0 0 0 0 0 0 0 0
0 0 0 0 0 0 0 0 0 0 0 0 0 0 0 0 0 0 0 0 0 0 0 0 0 0 0 0 0 0 0 0 0 0 0 0 0 0 0 0 0 0 0
0 0 0 0 0 0 0 0 0 0 0 0 0 0 0 0 0 0 0 0 0 0 0 0 0 0 0 0 0 0 0 0 0 0 0 0 0 0 0 0 0 0 0
0 0 0 0 0 0 0 0 0 0 0 0 0 0 0 0 0 0 0 0 0 0 0 0 0 0 0 0 0 0 0 0 0 0 0 0 0 0 0 0 0 0 0
0 0 0 0 0 0 0 0 0 0 0 0 0 0 0 0 0 0 0 0 0 0 0 0 0 0 0 0 0 0 0 0 0 0 0 0 0 0 0 0 0 0 0
0 0 0 0 0 0 0 0 0 0 0 0 0 0 0 0 0 0 0 0 0 0 0 0 0 0 0 0 0 0 0 0 0 0 0 0 0 0 0 0 0 0 0
0 0 0 0 0 0 0 0 0 0 0 0 0 0 0 0 0 0 0 0 0 0 0 0 0 0 0 0 0 0 0 0 0 0 0 0 0 0 0 0 0 0 0
0 0 0 0 0 0 0 0 0 0 0 0 0 0 0 0 0 0 0 0 0 0 0 0 0 0 0 0 0 0 0 0 0 0 0 0 0 0 0 0 0 0 0
0 0 0 0 0 0 0 0 0 0 0 0 0 0 0 0 0 0 0 0 0 0 0 0 0 0 0 0 0 0 0 0 0 0 0 0 0 0 0 0 0 0 0
0 0 0 0 0 0 0 0 0 0 0 0 0 0 0 0 0 0 0 0 0 0 0 0 0 0 0 0 0 0 0 0 0 0 0 0 0 0 0 0 0 0 0
Wind_Speed
3 3 3 2 2 2 2 3 2 2 2 3 3 3 4 4 4 4 5 5 5 6 5 6 6 5 4 4 4 4 5 5 9 9 6 6 7 7 7 6 6 6 7
2 2 2 2 2 2 2 2 2 2 2 3 3 4 4 4 4 5 6 5 6 6 6 6 7 6 6 5 4 5 5 5 7 11 9 7 8 7 7 7 7 7 6
2 2 2 1 2 2 2 2 2 2 3 3 3 4 4 4 4 5 5 5 6 6 6 7 7 6 7 6 5 6 5 6 6 8 9 7 6 6 7 7 7 6 6
1 2 1 2 2 2 2 2 2 3 3 3 3 4 4 5 5 5 5 5 6 6 6 7 7 7 8 7 6 7 6 7 6 7 8 7 7 6 5 6 6 4 5
1 1 1 1 1 1 2 2 2 3 3 3 3 4 4 4 4 4 4 5 6 6 7 7 7 9 10 9 7 6 6 6 6 7 8 8 7 6 5 5 6 5 5
1 1 0 0 1 1 2 2 2 3 3 2 3 4 4 5 7 8 7 5 6 6 7 7 7 7 9 12 14 13 11 9 8 7 7 8 8 7 5 5 5 5 5
1 1 1 0 1 1 2 2 2 3 2 3 3 4 5 6 8 9 10 6 6 6 6 6 6 6 9 6 9 12 11 14 13 10 9 9 8 7 6 7 6 6 6
1 1 1 1 1 2 2 2 3 2 2 3 4 4 4 6 9 10 10 6 5 6 6 6 6 6 7 8 7 7 7 8 9 8 7 8 7 7 6 6 6 5 5
1 1 1 1 1 2 2 3 3 2 3 3 3 4 4 5 8 10 10 5 5 6 7 6 6 6 10 12 8 7 8 7 8 10 9 9 9 9 7 4 4 4 4
1 1 1 1 1 2 2 3 3 2 3 3 4 4 4 4 7 10 10 4 5 6 6 6 8 9 11 12 7 6 7 7 6 6 6 6 5 5 7 4 3 3 3
2 2 2 2 2 2 2 2 2 3 3 3 4 4 3 4 7 9 9 4 5 6 5 5 5 11 12 12 10 6 7 7 5 4 4 4 3 3 3 2 2 2 2
2 2 2 2 2 2 2 3 3 2 3 3 4 4 3 4 6 8 10 9 9 6 5 5 6 11 12 12 8 7 8 7 3 3 3 3 3 3 2 2 1 1 1
2 2 2 2 2 2 2 2 3 2 2 3 3 4 4 4 5 9 10 11 11 7 5 9 11 12 11 7 7 9 7 3 3 3 3 3 3 2 2 1 1 1 2
2 2 2 2 2 3 2 2 2 2 2 3 3 4 4 5 4 4 4 5 8 7 6 8 10 10 7 6 7 6 4 3 3 2 2 2 2 2 2 1 1 1 2
2 2 2 2 2 2 3 2 2 2 2 3 3 3 4 5 6 10 8 6 5 5 6 5 4 4 4 4 4 4 3 3 3 2 2 2 2 2 2 2 1 1 1
2 3 2 2 2 2 2 3 4 4 5 6 6 5 5 6 10 10 11 11 10 9 6 4 4 4 4 4 4 4 3 3 3 3 2 2 2 2 2 1 1 1 1
2 2 2 2 2 2 2 2 4 5 5 6 7 8 7 9 10 11 11 10 9 8 4 3 4 4 4 4 4 4 4 3 3 3 3 2 2 2 1 1 1 2 2
3 3 3 2 2 2 2 2 2 3 4 4 6 8 9 10 10 11 10 8 5 5 3 3 4 4 4 4 4 4 4 3 3 3 2 2 2 1 1 1 1 2 2
3 2 2 2 2 2 2 2 2 3 3 4 5 6 9 9 8 9 8 4 4 4 4 4 4 4 4 4 4 3 4 3 3 3 2 2 2 1 1 1 2 4 3
3 4 4 2 2 2 2 2 2 3 3 3 4 4 5 5 4 5 5 4 4 4 4 4 4 4 4 4 4 3 3 3 3 3 2 2 1 1 1 1 2 3 3
3 3 5 3 2 2 2 2 2 3 3 3 3 5 8 4 4 4 4 4 4 4 4 4 4 4 4 4 3 4 4 3 3 2 2 2 1 1 1 2 2 3 3
2 2 2 2 2 2 2 2 2 3 3 4 4 5 8 5 3 4 4 4 4 4 4 4 4 4 4 4 4 3 3 3 3 2 1 1 1 1 1 2 3 3 3
2 2 2 2 2 4 4 3 3 3 3 4 4 4 4 4 4 4 4 4 4 4 4 4 4 4 4 4 3 3 3 3 2 2 1 1 1 1 1 2 3 3 3
2 2 2 3 3 3 3 3 3 4 4 4 4 4 4 4 4 5 4 4 4 4 4 4 4 5 6 5 4 3 3 3 2 1 0 0 1 1 1 2 2 3 3
2 2 3 3 3 3 3 3 3 4 4 4 4 4 4 4 4 4 4 4 5 5 6 5 4 5 6 7 6 4 4 4 2 1 1 1 2 2 2 2 3 3 4
3 3 3 3 3 3 3 3 4 4 4 4 4 4 4 4 4 4 4 4 4 5 5 5 6 6 6 5 5 5 5 4 3 2 2 2 2 2 3 3 4 4 5
Wind_Direction
188 194 202 202 193 190 211 226 231 246 251 256 261 264 265 266 267 267 270 273 273 273 273 272 272 271 268 266 264 260 257 258 274 286 286 292 288 285 288 281 274 271 271
187 197 198 189 183 203 231 230 231 251 257 257 264 267 267 269 267 267 274 278 274 273 274 274 275 278 273 270 267 264 264 262 268 282 289 292 286 282 284 284 284 280 273
179 193 191 190 194 222 235 234 239 252 264 265 267 266 270 269 267 267 271 276 274 271 270 271 275 275 276 273 270 269 269 271 269 277 286 288 288 287 286 286 281 279 278
165 177 194 220 221 231 240 245 245 245 254 262 268 271 274 274 270 273 277 277 274 274 270 269 272 270 270 270 270 265 268 271 272 277 283 288 287 288 284 286 287 282 285
136 166 222 245 247 255 250 247 256 258 260 261 270 274 275 276 277 287 288 288 283 283 280 273 271 274 277 276 278 273 272 275 277 278 282 287 286 288 283 283 286 292 290
135 183 206 235 256 260 266 266 263 266 267 270 274 279 282 286 296 300 301 295 290 288 289 286 280 279 282 284 285 285 282 281 279 276 279 282 284 284 289 286 287 292 295
84 70 40 360 297 298 296 292 275 268 266 275 275 277 282 290 301 303 302 301 293 292 291 293 294 292 294 285 288 291 289 287 283 277 275 276 280 282 283 282 282 285 284
55 40 24 7 337 333 331 309 291 283 278 279 278 278 285 294 305 308 309 305 294 292 290 288 288 292 293 295 292 292 291 291 288 283 276 279 283 283 274 271 274 286 289
42 27 17 6 345 334 321 312 305 299 297 294 292 288 287 296 311 315 317 307 303 302 297 296 297 294 299 303 300 295 297 296 296 290 288 288 291 296 291 283 278 283 292
30 14 15 10 353 326 314 313 315 309 297 301 301 297 296 300 312 316 319 308 306 305 302 298 301 304 306 309 302 296 296 299 302 303 307 314 313 314 311 289 271 267 280
24 20 20 15 356 339 338 334 333 329 323 318 318 315 313 311 313 319 322 318 308 307 306 307 306 310 310 312 311 301 298 306 308 310 312 316 320 327 329 325 312 273 269
36 24 17 7 357 359 358 343 342 338 333 329 329 329 334 333 335 330 328 325 323 312 308 310 314 319 317 318 319 316 318 321 318 321 326 327 329 332 332 340 351 359 297
40 26 12 7 5 6 5 353 348 346 337 333 331 328 332 337 335 333 331 330 328 324 317 321 322 324 324 327 335 331 331 332 333 331 327 323 322 313 311 332 353 31 37
36 19 9 10 7 10 9 0 351 344 341 336 331 329 328 329 327 327 327 327 328 327 323 322 326 331 334 336 336 337 339 336 331 321 319 316 315 322 326 324 329 359 49
24 12 5 9 13 8 7 6 350 340 330 324 321 315 318 320 319 325 327 327 324 321 322 325 335 341 348 346 341 340 345 347 342 332 325 321 321 331 330 330 347 40 85
17 9 6 7 8 5 359 355 360 349 346 342 335 327 324 322 324 329 332 334 334 335 337 343 347 347 344 341 339 338 342 342 335 327 325 323 321 325 330 342 37 83 84
14 4 3 3 1 355 352 347 337 342 347 349 348 346 340 334 336 338 339 343 345 345 353 353 345 340 338 335 335 332 330 329 325 324 323 326 327 327 335 360 73 93 88
13 6 360 356 353 348 344 339 334 332 333 336 341 343 343 343 345 347 347 349 354 358 359 349 339 336 334 331 331 330 326 327 329 331 334 339 345 349 3 33 93 109 101
10 4 0 355 351 346 341 339 337 333 331 330 334 339 343 342 344 350 352 359 350 349 349 345 338 334 331 329 329 327 324 325 329 334 341 345 349 3 21 49 96 103 99
11 3 355 351 348 351 348 342 337 331 328 331 332 331 333 341 350 349 353 352 350 345 342 340 337 334 332 329 327 324 326 330 332 335 340 353 0 11 32 73 94 101 101
5 1 359 357 357 351 342 335 330 327 328 330 330 332 338 341 342 339 342 346 345 341 336 334 331 329 329 327 324 327 331 332 330 328 339 358 16 20 42 82 95 104 109
359 354 353 351 349 346 335 330 332 333 335 334 332 335 338 340 339 337 338 339 337 332 328 327 325 324 324 322 322 323 325 326 326 327 343 0 22 36 55 84 98 106 111
353 351 351 348 344 342 345 344 340 336 334 334 333 334 336 338 337 336 335 334 332 331 331 329 326 325 326 323 319 313 306 305 307 313 330 349 25 66 82 95 109 117 118
349 347 346 341 342 342 338 338 338 335 333 332 332 333 333 332 331 331 331 332 332 332 333 331 328 326 327 326 320 311 303 303 309 320 323 118 102 103 110 107 112 123 126
351 346 341 339 337 334 332 332 332 331 330 329 329 330 330 329 329 329 330 331 332 333 334 332 329 329 329 327 325 323 329 338 349 21 57 100 111 114 117 115 114 115 113
347 344 341 339 338 335 332 329 330 330 328 326 326 326 325 326 329 330 331 334 336 334 332 331 332 331 329 328 333 341 349 6 36 52 64 94 101 105 109 108 113 115 116